Time[GMT],temperature[C](5m),salinity[psu](5m),sigma_t[kg/m^3](5m),conductivity[msiemens/cm](5m),pressure[decibars](5m)
2015-08-25 15:00,15.83,31.479,23.080,39.773,4.91
2015-08-25 15:20,15.91,31.481,23.064,39.845,4.90
2015-08-25 15:40,16.27,31.450,22.959,40.140,4.83
2015-08-25 16:00,16.31,31.423,22.929,40.145,4.89
2015-08-25 16:20,16.58,31.414,22.861,40.376,4.98
2015-08-25 16:40,16.52,31.385,22.853,40.288,4.99
2015-08-25 17:00,16.77,31.473,22.863,40.620,4.97
2015-08-25 17:20,16.68,31.465,22.878,40.524,4.96
2015-08-25 17:40,17.31,31.405,22.686,41.024,4.94
2015-08-25 18:00,17.22,31.369,22.680,40.903,4.90
2015-08-25 18:20,17.62,31.382,22.595,41.284,4.95
2015-08-25 18:40,17.25,31.416,22.707,40.990,4.95
2015-08-25 19:00,17.58,31.402,22.620,41.268,4.91
2015-08-25 19:20,18.03,31.384,22.500,41.656,4.94
2015-08-25 19:40,18.12,31.351,22.453,41.699,4.96
2015-08-25 20:00,17.68,31.385,22.583,41.344,4.90
2015-08-25 20:20,18.03,31.350,22.473,41.617,4.86
2015-08-25 20:40,17.83,31.380,22.544,41.471,4.96
2015-08-25 21:00,17.72,31.418,22.600,41.413,4.93
2015-08-25 21:20,17.38,31.411,22.673,41.100,4.95
2015-08-25 21:40,17.11,31.423,22.746,40.870,4.93
2015-08-25 22:00,17.47,31.413,22.655,41.181,4.92
2015-08-25 22:20,16.88,31.433,22.807,40.672,4.93
2015-08-25 22:40,18.02,31.311,22.445,41.564,4.95
2015-08-25 23:00,17.76,31.378,22.559,41.405,4.93
2015-08-25 23:20,17.55,31.393,22.620,41.233,4.94
2015-08-25 23:40,17.74,31.385,22.568,41.398,4.98
2015-08-26 00:00,17.25,31.415,22.707,40.986,4.97
2015-08-26 00:20,17.11,31.423,22.746,40.865,4.96
2015-08-26 00:40,17.48,31.336,22.594,41.099,4.96
2015-08-26 01:00,17.69,31.377,22.574,41.342,4.91
2015-08-26 01:20,17.89,31.386,22.533,41.537,4.92
2015-08-26 01:40,18.13,31.334,22.437,41.687,4.98
2015-08-26 02:00,17.79,31.418,22.581,41.484,4.92
2015-08-26 02:20,17.07,31.429,22.760,40.836,4.99
2015-08-26 02:40,16.28,31.472,22.973,40.176,4.91
2015-08-26 03:00,16.23,31.384,22.917,40.030,4.92
2015-08-26 03:20,15.81,31.475,23.081,39.752,4.84
2015-08-26 03:40,16.05,31.504,23.049,40.002,4.93
2015-08-26 04:00,16.28,31.468,22.972,40.163,4.74
2015-08-26 04:20,15.62,31.519,23.156,39.631,4.85
2015-08-26 04:40,15.90,31.509,23.088,39.867,4.82
2015-08-26 05:00,16.09,31.504,23.042,40.035,4.90
2015-08-26 05:20,16.71,31.431,22.844,40.514,4.96
2015-08-26 05:40,16.81,31.478,22.858,40.660,4.93
2015-08-26 06:00,16.94,31.418,22.781,40.711,4.89
2015-08-26 06:20,17.36,31.399,22.668,41.070,4.92
2015-08-26 06:40,17.49,31.401,22.640,41.187,4.95
2015-08-26 07:00,17.88,31.389,22.539,41.525,4.89
2015-08-26 07:20,17.92,31.368,22.512,41.541,4.89
2015-08-26 07:40,17.98,31.378,22.508,41.602,4.89
2015-08-26 08:00,18.26,31.393,22.449,41.883,4.93
2015-08-26 08:20,18.34,31.372,22.415,41.924,4.91
2015-08-26 08:40,18.16,31.376,22.462,41.765,4.87
2015-08-26 09:00,18.23,31.350,22.426,41.797,4.90
2015-08-26 09:20,18.38,31.377,22.409,41.968,4.89
2015-08-26 09:40,18.36,31.250,22.317,41.797,4.89
2015-08-26 10:00,18.51,31.367,22.369,42.075,4.90
2015-08-26 10:20,18.23,31.375,22.443,41.832,4.90
2015-08-26 10:40,18.37,31.375,22.410,41.956,4.95
2015-08-26 11:00,18.26,31.403,22.457,41.893,4.89
2015-08-26 11:20,18.45,31.378,22.391,42.037,4.93
2015-08-26 11:40,18.39,31.429,22.446,42.043,4.97
2015-08-26 12:00,17.88,31.398,22.545,41.543,4.95
2015-08-26 12:20,18.44,31.393,22.405,42.046,4.96
2015-08-26 12:40,17.65,31.392,22.596,41.324,4.85
2015-08-26 13:00,17.57,31.413,22.632,41.271,4.93
2015-08-26 13:20,17.40,31.437,22.689,41.148,4.92
2015-08-26 13:40,17.91,31.396,22.537,41.565,4.97
2015-08-26 14:00,17.89,31.363,22.517,41.505,4.92
2015-08-26 14:20,18.19,31.366,22.445,41.788,4.94
2015-08-26 14:40,17.45,31.433,22.674,41.191,4.93
2015-08-26 15:00,17.30,31.463,22.733,41.085,4.96
2015-08-26 15:20,16.76,31.453,22.849,40.587,4.97
2015-08-26 15:40,16.66,31.448,22.869,40.489,4.97
2015-08-26 16:00,16.55,31.458,22.902,40.398,4.89
2015-08-26 16:20,16.36,31.484,22.966,40.254,4.79
2015-08-26 16:40,16.39,31.475,22.951,40.275,4.89
2015-08-26 17:00,16.42,31.462,22.936,40.284,4.86
2015-08-26 17:20,16.59,31.478,22.909,40.456,4.89
2015-08-26 17:40,16.93,31.470,22.823,40.763,4.95
2015-08-26 18:00,17.16,31.439,22.745,40.935,4.92
2015-08-26 18:20,17.15,31.416,22.732,40.896,4.92
2015-08-26 18:40,17.74,31.387,22.569,41.402,4.95
2015-08-26 19:00,17.39,31.391,22.655,41.088,4.93
2015-08-26 19:20,17.33,31.416,22.690,41.056,4.93
2015-08-26 19:40,17.94,31.357,22.499,41.547,4.94
2015-08-26 20:00,18.59,31.335,22.324,42.114,4.91
2015-08-26 20:20,18.68,31.306,22.280,42.160,4.93
2015-08-26 20:40,18.43,31.298,22.335,41.923,4.89
2015-08-26 21:00,18.42,31.344,22.372,41.970,4.88
2015-08-26 21:20,18.56,31.320,22.322,42.065,4.88
2015-08-26 21:40,18.63,31.293,22.283,42.097,4.91
2015-08-26 22:00,18.41,31.337,22.369,41.953,4.90
2015-08-26 22:20,17.69,31.479,22.652,41.465,4.89
2015-08-26 22:40,18.09,31.339,22.450,41.661,4.93
2015-08-26 23:00,18.31,31.353,22.406,41.880,4.93
2015-08-26 23:20,17.83,31.386,22.547,41.482,4.92
2015-08-26 23:40,18.16,31.339,22.434,41.720,4.93
2015-08-27 00:00,17.78,31.380,22.556,41.426,4.98
2015-08-27 00:20,18.07,31.334,22.450,41.638,4.94
2015-08-27 00:40,18.42,31.302,22.341,41.919,4.94
2015-08-27 01:00,18.23,31.337,22.416,41.782,4.91
2015-08-27 01:20,17.63,31.385,22.594,41.300,4.95
2015-08-27 01:40,18.18,31.335,22.426,41.734,4.94
2015-08-27 02:00,18.09,31.370,22.473,41.698,4.96
2015-08-27 02:20,18.19,31.327,22.417,41.733,4.95
2015-08-27 02:40,18.38,31.334,22.374,41.923,4.98
2015-08-27 03:00,18.23,31.345,22.421,41.790,4.94
2015-08-27 03:20,17.26,31.433,22.719,41.017,4.94
2015-08-27 03:40,16.99,31.438,22.786,40.774,4.89
2015-08-27 04:00,16.45,31.453,22.920,40.305,4.82
2015-08-27 04:20,16.48,31.465,22.924,40.343,4.78
2015-08-27 04:40,16.47,31.468,22.929,40.335,4.77
2015-08-27 05:00,16.31,31.485,22.977,40.210,4.78
2015-08-27 05:20,16.03,31.455,23.018,39.924,4.84
2015-08-27 05:40,16.22,31.467,22.983,40.112,4.87
2015-08-27 06:00,16.43,31.463,22.933,40.300,4.86
2015-08-27 06:20,16.56,31.469,22.909,40.418,4.86
2015-08-27 06:40,16.96,31.458,22.808,40.773,4.96
2015-08-27 07:00,17.08,31.409,22.742,40.825,4.95
2015-08-27 07:20,17.13,31.406,22.728,40.866,4.95
2015-08-27 07:40,17.05,31.437,22.771,40.827,4.96
2015-08-27 08:00,17.09,31.432,22.757,40.864,4.95
2015-08-27 08:20,16.16,31.470,22.999,40.064,4.93
2015-08-27 08:40,18.06,31.343,22.461,41.637,4.95
2015-08-27 09:00,17.91,31.359,22.510,41.516,4.96
2015-08-27 09:20,17.22,31.399,22.703,40.935,4.91
2015-08-27 09:40,17.89,31.355,22.510,41.497,4.93
2015-08-27 10:00,17.22,31.413,22.713,40.954,4.92
2015-08-27 10:20,17.84,31.361,22.526,41.461,4.92
2015-08-27 10:40,17.65,31.378,22.585,41.305,4.95
2015-08-27 11:00,17.53,31.414,22.640,41.241,4.96
2015-08-27 11:20,17.73,31.389,22.574,41.394,4.96
2015-08-27 11:40,17.84,31.376,22.539,41.472,4.96
2015-08-27 12:00,18.07,31.388,22.491,41.703,4.97
2015-08-27 12:20,17.66,31.370,22.575,41.307,4.98
2015-08-27 12:40,17.58,31.403,22.621,41.269,4.96
2015-08-27 13:00,17.74,31.382,22.566,41.394,4.99
2015-08-27 13:20,18.16,31.331,22.427,41.716,4.97
2015-08-27 13:40,17.32,31.414,22.691,41.047,4.97
2015-08-27 14:00,17.07,31.424,22.756,40.831,4.93
2015-08-27 14:20,17.91,31.310,22.471,41.462,4.99
2015-08-27 14:40,17.73,31.367,22.557,41.367,4.96
2015-08-27 15:00,17.76,31.385,22.564,41.416,4.99
2015-08-27 15:20,17.89,31.381,22.530,41.526,4.93
2015-08-27 15:40,17.14,31.347,22.681,40.804,4.97
2015-08-27 16:00,17.06,31.448,22.777,40.850,4.83
2015-08-27 16:20,16.82,31.456,22.838,40.644,4.89
2015-08-27 16:40,16.29,31.466,22.967,40.173,4.87
2015-08-27 17:00,16.40,31.494,22.964,40.307,4.80
2015-08-27 17:20,16.54,31.469,22.913,40.403,4.81
2015-08-27 17:40,16.35,31.500,22.980,40.266,4.86
2015-08-27 18:00,16.48,31.470,22.926,40.353,4.94
2015-08-27 18:20,16.79,31.450,22.841,40.609,4.99
2015-08-27 18:40,16.91,31.463,22.824,40.730,4.98
2015-08-27 19:00,17.11,31.449,22.766,40.899,4.94
2015-08-27 19:20,17.21,31.423,22.724,40.955,4.97
2015-08-27 19:40,17.49,31.431,22.663,41.222,4.96
2015-08-27 20:00,17.67,31.410,22.605,41.358,4.96
2015-08-27 20:20,18.29,31.376,22.429,41.888,4.91
2015-08-27 20:40,18.54,31.360,22.356,42.098,4.90
2015-08-27 21:00,18.54,31.332,22.335,42.062,4.91
2015-08-27 21:20,18.52,31.371,22.368,42.094,4.90
2015-08-27 21:40,18.89,31.349,22.262,42.404,4.90
2015-08-27 22:00,18.95,31.347,22.246,42.453,4.91
2015-08-27 22:20,19.02,31.321,22.207,42.492,4.93
2015-08-27 22:40,19.22,31.337,22.170,42.693,4.92
2015-08-27 23:00,18.39,31.406,22.429,42.011,4.91
2015-08-27 23:20,18.64,31.348,22.323,42.174,4.91
2015-08-27 23:40,18.50,31.389,22.387,42.098,4.96
2015-08-28 00:00,18.77,31.344,22.287,42.288,4.97
2015-08-28 00:20,19.13,31.320,22.179,42.590,4.97
2015-08-28 00:40,17.68,31.418,22.607,41.383,4.97
2015-08-28 01:00,17.51,31.415,22.648,41.218,4.97
2015-08-28 01:20,18.26,31.320,22.393,41.797,4.99
2015-08-28 01:40,18.42,31.326,22.361,41.942,4.98
2015-08-28 02:00,17.74,31.399,22.579,41.414,5.01
2015-08-28 02:20,17.25,31.506,22.778,41.089,4.98
2015-08-28 02:40,17.73,31.409,22.591,41.411,4.99
2015-08-28 03:00,17.75,31.398,22.576,41.420,5.00
2015-08-28 03:20,17.90,31.407,22.547,41.567,5.00
2015-08-28 03:40,17.20,31.451,22.747,40.980,4.97
2015-08-28 04:00,17.66,31.362,22.571,41.296,4.96
2015-08-28 04:20,16.35,31.436,22.929,40.198,4.94
2015-08-28 04:40,16.51,31.393,22.861,40.289,4.78
2015-08-28 05:00,15.85,31.631,23.193,39.961,4.79
2015-08-28 05:20,15.39,31.562,23.240,39.473,4.76
2015-08-28 05:40,15.47,31.519,23.189,39.496,4.78
2015-08-28 06:00,16.13,31.407,22.958,39.964,4.77
2015-08-28 06:20,16.24,31.495,23.000,40.165,4.84
2015-08-28 06:40,16.40,31.486,22.957,40.300,4.80
2015-08-28 07:00,16.56,31.476,22.913,40.435,4.89
2015-08-28 07:20,16.63,31.473,22.895,40.489,4.93
2015-08-28 07:40,16.66,31.474,22.888,40.522,4.95
2015-08-28 08:00,16.67,31.473,22.886,40.525,5.00
2015-08-28 08:20,16.93,31.440,22.800,40.727,5.03
2015-08-28 08:40,16.69,31.477,22.885,40.548,5.01
2015-08-28 09:00,16.74,31.450,22.853,40.561,5.02
2015-08-28 09:20,16.94,31.387,22.757,40.674,5.02
2015-08-28 09:40,16.60,31.448,22.882,40.437,5.01
2015-08-28 10:00,17.66,31.409,22.607,41.351,5.01
2015-08-28 10:20,17.17,31.406,22.718,40.907,4.99
2015-08-28 10:40,16.96,31.455,22.806,40.770,4.96
2015-08-28 11:00,16.76,31.456,22.853,40.583,4.96
2015-08-28 11:20,16.60,31.490,22.915,40.486,4.99
2015-08-28 11:40,16.62,31.482,22.904,40.493,4.98
2015-08-28 12:00,16.45,31.490,22.950,40.343,4.98
2015-08-28 12:20,16.54,31.440,22.891,40.367,5.01
2015-08-28 12:40,16.42,31.441,22.918,40.266,5.01
2015-08-28 13:00,16.87,31.459,22.828,40.694,5.03
2015-08-28 13:20,17.05,31.430,22.766,40.822,5.04
2015-08-28 13:40,17.20,31.422,22.725,40.947,5.03
2015-08-28 14:00,17.25,31.393,22.691,40.958,5.00
2015-08-28 14:20,17.51,31.407,22.640,41.210,5.00
2015-08-28 14:40,16.59,31.474,22.904,40.458,5.00
2015-08-28 15:00,16.36,31.505,22.980,40.285,5.01
2015-08-28 15:20,16.62,31.460,22.887,40.466,5.03
2015-08-28 15:40,16.55,31.473,22.913,40.421,4.99
2015-08-28 16:00,16.10,31.483,23.023,40.020,4.99
2015-08-28 16:20,15.70,31.492,23.119,39.668,5.02
2015-08-28 16:40,16.84,31.389,22.782,40.588,4.97
2015-08-28 17:00,16.35,31.405,22.908,40.154,4.95
2015-08-28 17:20,16.04,31.497,23.046,39.988,4.97
2015-08-28 17:40,16.19,31.467,22.991,40.081,4.91
2015-08-28 18:00,15.54,31.520,23.174,39.558,4.88
2015-08-28 18:20,15.77,31.529,23.130,39.780,4.89
2015-08-28 18:40,15.54,31.484,23.147,39.522,4.94
2015-08-28 19:00,15.96,31.527,23.088,39.944,4.82
2015-08-28 19:20,16.11,31.513,23.044,40.063,4.94
2015-08-28 19:40,16.25,31.514,23.013,40.194,5.00
2015-08-28 20:00,16.76,31.510,22.894,40.652,5.06
2015-08-28 20:20,16.96,31.480,22.825,40.797,5.03
2015-08-28 20:40,17.39,31.452,22.703,41.158,4.95
2015-08-28 21:00,17.04,31.469,22.798,40.860,5.02
2015-08-28 21:20,17.44,31.293,22.570,41.011,4.94
2015-08-28 21:40,17.76,31.415,22.586,41.451,4.97
2015-08-28 22:00,17.84,31.408,22.561,41.518,4.97
2015-08-28 22:20,18.00,31.426,22.537,41.683,4.87
2015-08-28 22:40,17.76,31.414,22.585,41.452,4.95
2015-08-28 23:00,17.39,31.409,22.670,41.106,4.95
2015-08-28 23:20,17.04,31.473,22.799,40.866,4.93
2015-08-28 23:40,17.12,31.408,22.732,40.863,4.96
2015-08-29 00:00,17.27,31.457,22.736,41.051,4.96
2015-08-29 00:20,16.71,31.476,22.879,40.568,4.95
2015-08-29 00:40,16.61,31.348,22.805,40.327,4.98
2015-08-29 01:00,17.20,31.443,22.741,40.972,5.00
2015-08-29 01:20,16.88,31.506,22.864,40.751,5.00
2015-08-29 01:40,17.29,31.362,22.659,40.955,5.03
2015-08-29 02:00,16.46,31.511,22.963,40.381,5.05
2015-08-29 02:20,16.37,31.486,22.964,40.272,5.05
2015-08-29 02:40,16.30,31.473,22.970,40.195,5.05
2015-08-29 03:00,16.32,31.501,22.988,40.239,5.02
2015-08-29 03:20,16.73,31.473,22.872,40.583,5.04
2015-08-29 03:40,16.71,31.452,22.861,40.537,5.01
2015-08-29 04:00,16.41,31.506,22.971,40.327,5.04
2015-08-29 04:20,16.85,31.280,22.697,40.464,5.02
2015-08-29 04:40,15.85,31.536,23.120,39.855,5.01
2015-08-29 05:00,15.99,31.516,23.073,39.956,4.97
2015-08-29 05:20,15.56,31.558,23.199,39.620,4.92
2015-08-29 05:40,15.42,31.579,23.246,39.519,4.85
2015-08-29 06:00,15.78,31.541,23.138,39.801,4.82
2015-08-29 06:20,14.86,31.614,23.393,39.053,4.84
2015-08-29 06:40,14.63,31.636,23.459,38.871,4.88
2015-08-29 07:00,15.18,31.576,23.296,39.298,4.81
2015-08-29 07:20,15.81,31.578,23.160,39.866,4.84
2015-08-29 07:40,14.91,31.814,23.536,39.322,4.84
2015-08-29 08:00,16.07,31.503,23.046,40.015,4.91
2015-08-29 08:20,16.09,31.376,22.942,39.895,4.95
2015-08-29 08:40,16.09,31.524,23.057,40.056,4.98
2015-08-29 09:00,16.19,31.513,23.026,40.135,5.02
2015-08-29 09:20,16.61,31.495,22.918,40.495,5.04
2015-08-29 09:40,16.25,31.524,23.020,40.207,5.07
2015-08-29 10:00,16.05,31.518,23.060,40.017,5.03
2015-08-29 10:20,16.32,31.494,22.982,40.235,5.02
2015-08-29 10:40,16.06,31.546,23.080,40.058,5.03
2015-08-29 11:00,16.73,31.459,22.863,40.561,5.03
2015-08-29 11:20,16.05,31.513,23.057,40.007,4.98
2015-08-29 11:40,15.79,31.557,23.149,39.822,4.99
2015-08-29 12:00,15.70,31.524,23.143,39.708,5.02
2015-08-29 12:20,16.23,31.493,23.001,40.153,5.00
2015-08-29 12:40,15.45,31.545,23.214,39.507,5.01
2015-08-29 13:00,15.98,31.512,23.072,39.943,5.01
2015-08-29 13:20,15.47,31.580,23.237,39.559,5.02
2015-08-29 13:40,15.52,31.512,23.172,39.534,5.03
2015-08-29 14:00,15.86,31.494,23.085,39.815,5.01
2015-08-29 14:20,16.11,31.499,23.033,40.049,5.07
2015-08-29 14:40,16.26,31.472,22.978,40.156,5.05
2015-08-29 15:00,16.22,31.509,23.015,40.164,5.05
2015-08-29 15:20,16.50,31.487,22.935,40.392,5.03
2015-08-29 15:40,16.31,31.493,22.984,40.219,5.02
2015-08-29 16:00,16.05,31.523,23.064,40.024,5.03
2015-08-29 16:20,16.12,31.519,23.047,40.078,5.05
2015-08-29 16:40,15.29,31.580,23.275,39.401,5.01
2015-08-29 17:00,15.39,31.546,23.229,39.450,5.08
2015-08-29 17:20,15.34,31.579,23.263,39.448,5.03
2015-08-29 17:40,15.64,31.527,23.159,39.654,5.01
2015-08-29 18:00,15.60,31.560,23.192,39.662,4.95
2015-08-29 18:20,15.26,31.583,23.285,39.374,4.88
2015-08-29 18:40,15.44,31.594,23.253,39.553,4.84
2015-08-29 19:00,15.22,31.568,23.281,39.327,4.85
2015-08-29 19:20,14.84,31.630,23.410,39.052,4.83
2015-08-29 19:40,15.45,31.568,23.230,39.536,4.82
2015-08-29 20:00,15.67,31.562,23.179,39.722,4.85
2015-08-29 20:20,15.75,31.554,23.155,39.786,4.92
2015-08-29 20:40,15.93,31.531,23.097,39.924,4.91
2015-08-29 21:00,16.04,31.536,23.076,40.031,5.06
2015-08-29 21:20,16.01,31.480,23.040,39.938,5.01
2015-08-29 21:40,16.53,31.480,22.924,40.405,5.01
2015-08-29 22:00,16.29,31.530,23.017,40.248,5.02
2015-08-29 22:20,16.85,31.519,22.881,40.741,4.95
2015-08-29 22:40,17.11,31.491,22.797,40.949,4.95
2015-08-29 23:00,17.01,31.489,22.820,40.856,4.97
2015-08-29 23:20,17.16,31.460,22.764,40.952,4.92
2015-08-29 23:40,16.70,31.503,22.903,40.584,4.95
2015-08-30 00:00,16.54,31.499,22.936,40.437,4.96
2015-08-30 00:20,16.41,31.461,22.935,40.277,4.95
2015-08-30 00:40,16.34,31.512,22.991,40.271,4.95
2015-08-30 01:00,16.58,31.469,22.904,40.440,4.98
2015-08-30 01:20,15.90,31.583,23.143,39.959,4.97
2015-08-30 01:40,16.22,31.539,23.038,40.197,4.94
2015-08-30 02:00,16.79,31.463,22.851,40.622,4.99
2015-08-30 02:20,16.36,31.528,22.999,40.310,4.98
2015-08-30 02:40,16.18,31.520,23.034,40.134,5.01
2015-08-30 03:00,16.11,31.530,23.057,40.082,5.03
2015-08-30 03:20,15.85,31.527,23.112,39.846,5.00
2015-08-30 03:40,15.84,31.545,23.127,39.861,5.01
2015-08-30 04:00,15.94,31.545,23.106,39.947,5.01
2015-08-30 04:20,16.02,31.529,23.075,40.006,4.99
2015-08-30 04:40,15.92,31.541,23.108,39.922,5.00
2015-08-30 05:00,15.98,31.507,23.068,39.938,4.93
2015-08-30 05:20,15.20,31.681,23.373,39.429,5.00
2015-08-30 05:40,14.95,31.603,23.366,39.122,4.91
2015-08-30 06:00,15.19,31.591,23.306,39.321,4.91
2015-08-30 06:20,15.26,31.567,23.272,39.359,4.76
2015-08-30 06:40,15.29,31.514,23.225,39.324,4.75
2015-08-30 07:00,15.06,31.584,23.329,39.196,4.80
2015-08-30 07:20,13.76,31.739,23.717,38.204,4.72
2015-08-30 07:40,15.19,31.583,23.299,39.313,4.76
2015-08-30 08:00,15.45,31.576,23.237,39.540,4.76
2015-08-30 08:20,15.52,31.553,23.205,39.575,4.76
2015-08-30 08:40,15.76,31.550,23.149,39.795,4.84
2015-08-30 09:00,15.62,31.597,23.217,39.716,4.82
2015-08-30 09:20,15.79,31.531,23.129,39.798,4.91
2015-08-30 09:40,15.89,31.550,23.120,39.911,4.95
2015-08-30 10:00,16.03,31.520,23.067,39.998,4.97
2015-08-30 10:20,16.21,31.516,23.023,40.160,4.98
2015-08-30 10:40,16.06,31.537,23.073,40.048,4.95
2015-08-30 11:00,15.64,31.523,23.155,39.652,4.97
2015-08-30 11:20,16.33,31.527,23.005,40.280,4.98
2015-08-30 11:40,16.21,31.557,23.055,40.206,4.97
2015-08-30 12:00,16.32,31.507,22.992,40.248,4.96
2015-08-30 12:20,15.74,31.561,23.162,39.788,4.91
2015-08-30 12:40,16.22,31.497,23.006,40.148,4.95
2015-08-30 13:00,15.95,31.545,23.103,39.961,4.97
2015-08-30 13:20,15.63,31.518,23.153,39.638,4.95
2015-08-30 13:40,15.69,31.541,23.158,39.719,4.95
2015-08-30 14:00,15.62,31.580,23.203,39.697,4.95
2015-08-30 14:20,15.63,31.539,23.169,39.660,4.95
2015-08-30 14:40,16.30,31.499,22.989,40.225,4.99
2015-08-30 15:00,16.06,31.526,23.065,40.032,4.97
2015-08-30 15:20,16.39,31.516,22.982,40.325,4.97
2015-08-30 15:40,16.40,31.513,22.979,40.325,4.97
2015-08-30 16:00,15.76,31.548,23.147,39.792,5.00
2015-08-30 16:20,15.94,31.547,23.106,39.954,5.02
2015-08-30 16:40,15.25,31.640,23.329,39.436,5.05
2015-08-30 17:00,15.73,31.555,23.159,39.774,4.98
2015-08-30 17:20,15.58,31.574,23.209,39.652,5.06
2015-08-30 17:40,15.16,31.610,23.326,39.317,4.99
2015-08-30 18:00,14.57,31.670,23.497,38.855,4.91
2015-08-30 18:20,14.85,31.573,23.364,38.997,4.98
2015-08-30 18:40,14.71,31.640,23.446,38.943,4.91
2015-08-30 19:00,15.17,31.603,23.318,39.322,4.83
2015-08-30 19:20,15.38,31.594,23.266,39.501,4.83
2015-08-30 19:40,15.23,31.606,23.308,39.378,4.74
2015-08-30 20:00,15.03,31.676,23.405,39.271,4.73
2015-08-30 20:20,15.40,31.630,23.291,39.553,4.75
2015-08-30 20:40,15.57,31.583,23.216,39.659,4.88
2015-08-30 21:00,15.64,31.585,23.204,39.720,4.87
2015-08-30 21:20,15.45,31.601,23.257,39.566,4.84
2015-08-30 21:40,15.66,31.605,23.213,39.765,4.83
2015-08-30 22:00,15.93,31.554,23.114,39.951,4.93
2015-08-30 22:20,16.40,31.541,22.999,40.364,4.97
2015-08-30 22:40,16.48,31.545,22.986,40.433,4.96
2015-08-30 23:00,16.28,31.534,23.021,40.247,4.97
2015-08-30 23:20,16.67,31.510,22.915,40.567,4.93
2015-08-30 23:40,16.54,31.524,22.955,40.469,4.96
2015-08-31 00:00,16.28,31.549,23.034,40.259,4.95
2015-08-31 00:20,16.30,31.516,23.002,40.244,4.90
2015-08-31 00:40,15.88,31.562,23.132,39.914,4.89
2015-08-31 01:00,15.68,31.607,23.211,39.782,4.90
2015-08-31 01:20,15.98,31.551,23.101,39.994,4.93
2015-08-31 01:40,16.10,31.524,23.054,40.066,4.93
2015-08-31 02:00,15.92,31.559,23.122,39.945,4.93
2015-08-31 02:20,15.77,31.548,23.147,39.795,4.94
2015-08-31 02:40,15.37,31.581,23.258,39.477,4.92
2015-08-31 03:00,16.12,31.417,22.967,39.968,4.96
2015-08-31 03:20,16.55,31.491,22.928,40.436,4.95
2015-08-31 03:40,16.19,31.532,23.040,40.160,4.97
2015-08-31 04:00,15.73,31.564,23.167,39.782,4.96
2015-08-31 04:40,15.80,31.555,23.145,39.832,4.97
2015-08-31 05:00,15.47,31.593,23.247,39.574,4.98
2015-08-31 05:20,15.54,31.565,23.210,39.610,4.99
2015-08-31 05:40,15.86,31.541,23.122,39.868,4.97
2015-08-31 06:00,15.31,31.627,23.307,39.472,4.98
2015-08-31 06:20,14.69,31.650,23.457,38.941,4.99
2015-08-31 06:40,14.72,31.639,23.443,38.953,4.93
2015-08-31 07:00,14.78,31.625,23.418,38.997,4.89
2015-08-31 07:20,14.83,31.784,23.530,39.216,4.76
2015-08-31 07:40,14.91,31.617,23.386,39.097,4.76
2015-08-31 08:00,14.77,31.611,23.411,38.967,4.76
2015-08-31 08:20,15.05,31.619,23.356,39.230,4.76
2015-08-31 08:40,15.17,31.601,23.317,39.317,4.81
2015-08-31 09:00,15.27,31.609,23.301,39.419,4.83
2015-08-31 09:20,15.47,31.575,23.234,39.554,4.82
2015-08-31 09:40,15.53,31.583,23.225,39.619,4.86
2015-08-31 10:00,15.58,31.587,23.217,39.672,4.84
2015-08-31 10:20,15.25,31.577,23.281,39.364,4.91
2015-08-31 10:40,15.57,31.562,23.201,39.634,4.94
2015-08-31 11:00,15.61,31.580,23.206,39.689,4.99
2015-08-31 11:20,15.96,31.566,23.118,39.989,4.98
2015-08-31 11:40,15.61,31.570,23.197,39.681,4.97
2015-08-31 12:00,15.85,31.523,23.110,39.840,4.93
2015-08-31 12:20,15.74,31.540,23.147,39.758,4.95
2015-08-31 12:40,15.81,31.538,23.128,39.826,4.94
2015-08-31 13:00,15.70,31.566,23.175,39.753,4.92
2015-08-31 13:20,15.63,31.570,23.193,39.696,4.94
2015-08-31 13:40,15.81,31.532,23.125,39.812,4.90
2015-08-31 14:00,15.77,31.539,23.139,39.790,4.93
2015-08-31 14:20,16.13,31.539,23.059,40.111,4.92
2015-08-31 14:40,15.35,31.590,23.270,39.466,4.90
2015-08-31 15:00,15.34,31.575,23.260,39.444,4.87
2015-08-31 15:20,15.86,31.464,23.062,39.781,4.92
2015-08-31 15:40,15.65,31.440,23.091,39.563,4.91
2015-08-31 16:00,15.46,31.527,23.197,39.495,4.95
2015-08-31 16:20,16.32,31.531,23.010,40.278,4.93
2015-08-31 16:40,16.04,31.535,23.077,40.024,4.94
2015-08-31 17:00,16.07,31.541,23.073,40.065,4.93
2015-08-31 17:20,15.69,31.564,23.177,39.739,4.94
2015-08-31 17:40,15.65,31.549,23.172,39.692,4.93
2015-08-31 18:00,16.18,31.577,23.078,40.198,4.95
2015-08-31 18:20,15.55,31.587,23.225,39.639,4.89
2015-08-31 18:40,14.48,31.639,23.493,38.735,4.94
2015-08-31 19:00,14.80,31.683,23.459,39.076,4.88
2015-08-31 19:20,14.90,31.619,23.389,39.095,4.87
2015-08-31 19:40,14.27,31.735,23.610,38.657,4.74
2015-08-31 20:00,15.22,31.635,23.332,39.402,4.71
2015-08-31 20:20,15.20,31.652,23.350,39.400,4.74
2015-08-31 20:40,14.39,31.657,23.526,38.676,4.68
2015-08-31 21:00,15.20,31.628,23.332,39.373,4.67
2015-08-31 21:20,15.43,31.613,23.271,39.562,4.76
2015-08-31 21:40,15.53,31.592,23.233,39.629,4.84
2015-08-31 22:00,15.72,31.578,23.179,39.787,4.72
2015-08-31 22:20,15.64,31.604,23.217,39.745,4.82
2015-08-31 22:40,15.38,31.556,23.238,39.453,4.86
2015-08-31 23:00,15.58,31.528,23.172,39.604,4.91
2015-08-31 23:20,16.10,31.532,23.060,40.077,4.93
2015-08-31 23:40,16.16,31.577,23.080,40.187,4.90
2015-09-01 00:00,15.36,31.626,23.295,39.518,4.93
2015-09-01 00:20,15.26,31.617,23.311,39.413,4.93
2015-09-01 00:40,15.75,31.582,23.176,39.821,4.96
2015-09-01 01:00,15.86,31.544,23.123,39.876,4.93
2015-09-01 01:20,15.47,31.590,23.244,39.572,4.94
2015-09-01 01:40,15.34,31.596,23.275,39.467,4.91
2015-09-01 02:00,15.37,31.591,23.267,39.482,4.93
2015-09-01 02:20,15.33,31.571,23.260,39.429,4.92
2015-09-01 02:40,15.29,31.670,23.345,39.500,4.93
2015-09-01 03:00,15.30,31.576,23.270,39.405,4.93
2015-09-01 03:20,15.27,31.612,23.304,39.421,4.93
2015-09-01 03:40,14.87,31.606,23.386,39.051,4.96
2015-09-01 04:00,14.82,31.636,23.420,39.036,4.94
2015-09-01 04:20,15.40,31.558,23.236,39.471,4.91
2015-09-01 04:40,15.03,31.588,23.337,39.174,4.96
2015-09-01 05:00,14.98,31.641,23.390,39.188,4.97
2015-09-01 05:20,15.45,31.571,23.233,39.538,4.97
2015-09-01 05:40,14.17,31.714,23.614,38.544,4.98
2015-09-01 06:00,15.04,31.221,23.052,38.779,4.95